FW7508 Weather Reports


Display with metric or nautical units.
time (UTC)temp
F
wind
direction
speed
MPH
gust
MPH
rain 1hr
in
rain 24hr
in
rain mn
in
humidity
%
barometer
mb
20260906122058 58 303 0.0 0.0 0.00 0.00 0.00 99 1023.3
20260906121554 58 305 0.0 0.0 0.00 0.00 0.00 99 1023.3
20260906121051 58 312 0.0 0.0 0.00 0.00 0.00 99 1023.1
20260906120545 58 307 0.0 0.0 0.00 0.00 0.00 99 1023.2
20260906120043 58 306 0.0 0.0 0.00 0.00 0.00 99 1022.8
20260906115542 57 309 0.0 0.0 0.00 0.00 0.00 99 1023.1
20260906115038 57 309 0.0 0.0 0.00 0.00 0.00 99 1022.9
20260906114532 57 309 0.0 0.0 0.00 0.00 0.00 99 1022.9
20260906114028 57 309 0.0 0.0 0.00 0.00 0.00 99 1023.0
20260906113526 57 309 0.0 0.0 0.00 0.00 0.00 99 1023.0
20260906113022 57 309 0.0 0.0 0.00 0.00 0.00 99 1022.8
20260906112517 57 307 0.0 0.0 0.00 0.00 0.00 99 1022.7
20260906112013 57 307 0.0 0.0 0.00 0.00 0.00 99 1022.4
20260906111513 57 308 0.0 0.0 0.00 0.00 0.00 99 1022.5
20260906111008 57 308 0.0 0.0 0.00 0.00 0.00 99 1022.6
20260906110503 57 307 0.0 0.0 0.00 0.00 0.00 99 1022.5
20260906110002 57 306 0.0 0.0 0.00 0.00 0.00 99 1022.4
20260906105457 57 306 0.0 0.0 0.00 0.00 0.00 99 1022.4
20260906104953 58 306 0.0 0.0 0.00 0.00 0.00 99 1022.7
20260906104451 58 306 0.0 0.0 0.00 0.00 0.00 99 1022.6
20260906103951 58 307 0.0 0.0 0.00 0.00 0.00 99 1022.5
20260906103449 58 311 0.0 1.0 0.00 0.00 0.00 99 1022.5
20260906102945 58 307 0.0 0.0 0.00 0.00 0.00 99 1022.3
20260906102445 58 320 1.0 1.0 0.00 0.00 0.00 99 1022.0
20260906101945 58 307 0.0 0.0 0.00 0.00 0.00 99 1022.3
20260906101440 58 306 0.0 0.0 0.00 0.00 0.00 99 1022.3
20260906100936 58 307 0.0 0.0 0.00 0.00 0.00 99 1022.2
20260906100436 58 307 0.0 0.0 0.00 0.00 0.00 99 1022.3
20260906095930 58 311 0.0 0.0 0.00 0.00 0.00 99 1022.3
20260906095425 58 314 0.0 0.0 0.00 0.00 0.00 99 1022.4
20260906094920 58 315 0.0 1.0 0.00 0.00 0.00 99 1022.3
20260906094414 59 307 0.0 0.0 0.00 0.00 0.00 99 1022.3
20260906093910 59 304 0.0 0.0 0.00 0.00 0.00 99 1022.0
20260906093407 59 310 0.0 0.0 0.00 0.00 0.00 99 1022.1
20260906092901 58 309 0.0 0.0 0.00 0.00 0.00 99 1022.2
20260906092401 59 309 0.0 0.0 0.00 0.00 0.00 99 1022.2
20260906091856 59 290 0.0 0.0 0.00 0.00 0.00 99 1022.4
20260906091352 59 290 0.0 0.0 0.00 0.00 0.00 99 1022.2
20260906090849 59 290 0.0 0.0 0.00 0.00 0.00 99 1022.2
20260906090348 59 290 0.0 0.0 0.00 0.00 0.00 99 1022.0
20260906085842 59 290 0.0 0.0 0.00 0.00 0.00 98 1022.1
20260906085341 59 290 0.0 0.0 0.00 0.00 0.00 98 1022.2
20260906084836 59 290 0.0 0.0 0.00 0.00 0.00 98 1022.0
20260906084336 59 290 0.0 0.0 0.00 0.00 0.00 98 1022.1
20260906083831 59 290 0.0 0.0 0.00 0.00 0.00 97 1021.8
20260906083326 59 290 0.0 0.0 0.00 0.00 0.00 97 1022.0
20260906082820 60 290 0.0 0.0 0.00 0.00 0.00 97 1021.8
20260906082316 60 290 0.0 0.0 0.00 0.00 0.00 97 1021.7
20260906081811 60 290 0.0 0.0 0.00 0.00 0.00 97 1021.6
20260906081307 60 291 0.0 0.0 0.00 0.00 0.00 97 1021.3
20260906080803 60 292 0.0 0.0 0.00 0.00 0.00 97 1021.6
20260906080259 60 300 0.0 0.0 0.00 0.00 0.00 98 1021.3
20260906075758 60 309 0.0 0.0 0.00 0.00 0.00 98 1021.3
20260906075253 60 309 0.0 0.0 0.00 0.00 0.00 97 1021.3
20260906074748 60 309 0.0 0.0 0.00 0.00 0.00 97 1021.1
20260906074248 60 316 0.0 0.0 0.00 0.00 0.00 97 1021.2
20260906073747 60 316 0.0 0.0 0.00 0.00 0.00 97 1021.1
20260906073242 60 315 0.0 0.0 0.00 0.00 0.00 97 1021.2
20260906072738 61 315 0.0 0.0 0.00 0.00 0.00 97 1021.4
20260906072234 61 321 1.0 1.0 0.00 0.00 0.00 97 1021.3
20260906071729 61 309 0.0 0.0 0.00 0.00 0.00 97 1021.1
20260906071224 61 315 0.0 1.0 0.00 0.00 0.00 97 1021.2
20260906070721 61 298 0.0 0.0 0.00 0.00 0.00 96 1021.1
20260906070216 61 305 0.0 0.0 0.00 0.00 0.00 96 1021.2
20260906065715 61 303 0.0 0.0 0.00 0.00 0.00 96 1021.1
20260906065211 61 299 0.0 0.0 0.00 0.00 0.00 96 1021.1
20260906064706 61 309 0.0 0.0 0.00 0.00 0.00 96 1021.3
20260906064202 61 313 0.0 0.0 0.00 0.00 0.00 96 1021.4
20260906063656 62 313 0.0 0.0 0.00 0.00 0.00 95 1021.4
20260906063152 62 311 0.0 0.0 0.00 0.00 0.00 95 1021.4
20260906062648 62 311 0.0 0.0 0.00 0.00 0.00 94 1021.3
20260906062146 62 311 0.0 0.0 0.00 0.00 0.00 94 1021.3
20260906061643 62 299 0.0 0.0 0.00 0.00 0.00 94 1021.3
20260906061143 62 293 0.0 0.0 0.00 0.00 0.00 94 1021.4
20260906060639 62 305 2.0 2.0 0.00 0.00 0.00 94 1021.3
20260906060136 63 315 0.0 1.0 0.00 0.00 0.00 94 1021.3
20260906055632 63 309 0.0 0.0 0.00 0.00 0.00 94 1021.3
20260906055127 63 314 0.0 0.0 0.00 0.00 0.00 94 1021.0
20260906054621 63 314 0.0 1.0 0.00 0.00 0.00 94 1021.0
20260906054117 63 300 0.0 0.0 0.00 0.00 0.00 94 1021.1
20260906053613 63 284 0.0 0.0 0.00 0.00 0.00 94 1021.1
20260906053109 63 309 0.0 0.0 0.00 0.00 0.00 93 1020.9
20260906052604 64 304 0.0 0.0 0.00 0.00 0.00 93 1021.1
20260906052101 64 305 0.0 0.0 0.00 0.00 0.00 93 1021.1
20260906051556 64 292 0.0 0.0 0.00 0.00 0.00 92 1020.9
20260906051051 64 307 0.0 1.0 0.00 0.00 0.00 92 1020.8
20260906050546 64 301 0.0 0.0 0.00 0.00 0.00 92 1021.1
20260906050042 64 298 0.0 0.0 0.00 0.00 0.00 92 1020.9
20260906045539 65 290 0.0 0.0 0.00 0.00 0.00 92 1021.0
20260906045036 65 306 0.0 0.0 0.00 0.00 0.00 92 1020.9
20260906044531 65 301 0.0 0.0 0.00 0.00 0.00 92 1020.8
20260906044026 65 298 0.0 0.0 0.00 0.00 0.00 92 1020.8
20260906043522 65 290 0.0 0.0 0.00 0.00 0.00 92 1020.9
20260906043018 65 302 0.0 0.0 0.00 0.00 0.00 93 1020.8
20260906042516 65 305 0.0 0.0 0.00 0.00 0.00 94 1020.8
20260906042011 64 285 0.0 0.0 0.00 0.00 0.00 96 1020.4
20260906041508 64 300 0.0 0.0 0.00 0.00 0.00 97 1020.5
20260906041007 64 313 0.0 1.0 0.00 0.00 0.00 98 1020.5
20260906040502 64 309 0.0 0.0 0.00 0.00 0.00 99 1020.3
20260906035957 65 312 0.0 0.0 0.00 0.07 0.07 99 1020.2
20260906035452 65 292 0.0 0.0 0.00 0.07 0.07 99 1020.2
20260906034949 65 288 0.0 0.0 0.00 0.07 0.07 99 1020.2
20260906034448 66 287 0.0 0.0 0.00 0.07 0.07 99 1020.2
20260906033938 66 287 0.0 0.0 0.00 0.07 0.07 99 1020.2
20260906033438 66 287 0.0 0.0 0.00 0.07 0.07 99 1020.2
20260906032934 66 285 0.0 0.0 0.00 0.07 0.07 99 1020.3
20260906032430 66 285 0.0 0.0 0.00 0.07 0.07 99 1020.1
20260906031924 66 285 0.0 0.0 0.00 0.07 0.07 99 1020.1
20260906031420 67 285 0.0 0.0 0.00 0.07 0.07 99 1019.9
20260906030915 67 285 0.0 0.0 0.00 0.07 0.07 99 1019.9
20260906030410 67 285 0.0 0.0 0.00 0.07 0.07 99 1019.8
20260906025904 67 284 0.0 0.0 0.00 0.07 0.07 99 1020.0
20260906025359 67 284 0.0 0.0 0.00 0.07 0.07 99 1020.0
20260906024858 68 284 0.0 0.0 0.00 0.07 0.07 99 1019.8
20260906024357 68 284 0.0 0.0 0.00 0.07 0.07 99 1020.1
20260906023852 68 285 0.0 0.0 0.00 0.07 0.07 99 1019.9
20260906023349 69 284 0.0 0.0 0.00 0.07 0.07 99 1020.0
20260906022848 69 285 0.0 0.0 0.00 0.07 0.07 99 1020.0
20260906022343 69 285 0.0 0.0 0.00 0.07 0.07 99 1019.6
20260906021839 69 281 0.0 0.0 0.00 0.07 0.07 99 1019.7
20260906021338 69 281 0.0 0.0 0.00 0.07 0.07 99 1019.6
20260906020834 69 281 0.0 0.0 0.00 0.07 0.07 99 1019.6
20260906020333 69 281 0.0 0.0 0.00 0.07 0.07 99 1019.6
20260906015828 69 281 0.0 0.0 0.00 0.07 0.07 99 1019.5
20260906015327 69 281 0.0 0.0 0.00 0.07 0.07 99 1019.4
20260906014826 70 281 0.0 0.0 0.00 0.07 0.07 98 1019.5
20260906014322 70 281 0.0 0.0 0.00 0.07 0.07 98 1019.3
20260906013818 70 281 0.0 0.0 0.00 0.07 0.07 98 1019.4
20260906013313 70 281 0.0 0.0 0.00 0.07 0.07 97 1019.5
20260906012808 70 281 0.0 0.0 0.00 0.07 0.07 97 1019.4
20260906012306 70 281 0.0 0.0 0.00 0.07 0.07 97 1019.0
20260906011758 70 281 0.0 0.0 0.00 0.07 0.07 97 1019.1
20260906011258 71 281 0.0 0.0 0.00 0.07 0.07 97 1019.2
20260906010754 71 281 0.0 0.0 0.00 0.07 0.07 96 1019.0
20260906010249 71 281 0.0 0.0 0.00 0.07 0.07 96 1019.1
20260906005745 72 281 0.0 0.0 0.00 0.07 0.07 96 1019.0
20260906005244 72 281 0.0 0.0 0.00 0.07 0.07 95 1018.8
20260906004743 72 281 0.0 0.0 0.00 0.07 0.07 95 1018.9
20260906004233 73 281 0.0 0.0 0.00 0.07 0.07 94 1018.6
20260906003733 73 281 0.0 0.0 0.00 0.07 0.07 94 1018.6
20260906003229 73 281 0.0 0.0 0.00 0.07 0.07 94 1018.7
20260906002729 73 284 0.0 0.0 0.00 0.07 0.07 94 1018.6
20260906002229 73 285 0.0 0.0 0.00 0.07 0.07 94 1018.7
20260906001724 73 322 0.0 0.0 0.00 0.07 0.07 94 1018.6
20260906001219 73 307 0.0 0.0 0.00 0.07 0.07 94 1018.5
20260906000714 73 312 0.0 0.0 0.00 0.07 0.07 93 1018.5
20260906000211 73 309 0.0 0.0 0.00 0.07 0.07 93 1018.8
20260905235709 73 320 0.0 0.0 0.00 0.07 0.07 93 1018.8
20260905235204 73 320 0.0 0.0 0.00 0.07 0.07 92 1018.9
20260905234659 73 320 0.0 0.0 0.00 0.07 0.07 92 1018.7
20260905234154 73 320 1.0 1.0 0.00 0.07 0.07 92 1018.9
20260905233650 73 318 0.0 0.0 0.00 0.07 0.07 92 1019.1
20260905233149 73 298 0.0 1.0 0.00 0.07 0.07 92 1018.6
20260905232644 73 300 0.0 0.0 0.00 0.07 0.07 92 1018.7
20260905232140 73 294 0.0 0.0 0.00 0.07 0.07 92 1018.6
20260905231635 73 322 0.0 0.0 0.00 0.07 0.07 92 1018.9
20260905231131 74 296 0.0 0.0 0.00 0.07 0.07 91 1019.0
20260905230627 74 299 1.0 1.0 0.00 0.07 0.07 90 1018.7
20260905230125 75 288 0.0 0.0 0.00 0.07 0.07 89 1018.7
20260905225623 75 316 0.0 1.0 0.00 0.07 0.07 88 1018.8
20260905225114 75 332 2.0 2.0 0.00 0.07 0.07 87 1018.6
20260905224614 75 291 0.0 0.0 0.00 0.07 0.07 87 1018.7
20260905224113 75 291 0.0 0.0 0.00 0.07 0.07 86 1018.8
20260905223610 76 285 0.0 0.0 0.00 0.07 0.07 86 1018.8
20260905223107 76 285 0.0 0.0 0.00 0.07 0.07 85 1018.7
20260905222606 75 318 0.0 0.0 0.00 0.07 0.07 84 1018.8
20260905222102 75 291 0.0 0.0 0.00 0.07 0.07 86 1018.6
20260905221558 75 299 0.0 0.0 0.00 0.07 0.07 86 1018.6
20260905221054 75 299 0.0 0.0 0.00 0.07 0.07 86 1018.6
20260905220548 75 299 0.0 0.0 0.00 0.07 0.07 85 1018.5
20260905220045 76 273 0.0 0.0 0.00 0.07 0.07 85 1018.5
20260905215544 75 323 1.0 1.0 0.00 0.07 0.07 85 1018.3
20260905215040 75 315 1.0 1.0 0.00 0.07 0.07 84 1018.2
20260905214536 75 285 0.0 0.0 0.00 0.07 0.07 84 1018.1
20260905214031 75 286 0.0 1.0 0.00 0.07 0.07 84 1018.3
20260905213526 75 295 0.0 1.0 0.00 0.07 0.07 84 1018.3
20260905213022 76 328 0.0 1.0 0.00 0.07 0.07 84 1018.2
20260905212516 76 35 7.0 8.0 0.00 0.07 0.07 83 1018.1
20260905212017 76 277 0.0 1.0 0.00 0.07 0.07 83 1018.4
20260905211512 76 324 1.0 1.0 0.00 0.07 0.07 83 1018.3
20260905211007 76 16 5.0 6.0 0.00 0.07 0.07 84 1018.4
20260905210503 75 345 3.0 3.0 0.00 0.07 0.07 85 1018.3
20260905210002 75 285 0.0 0.0 0.00 0.07 0.07 86 1018.3
20260905205457 75 268 1.0 1.0 0.00 0.07 0.07 85 1018.3
20260905204955 75 301 2.0 3.0 0.00 0.07 0.07 86 1018.2
20260905204451 75 328 3.0 3.0 0.00 0.07 0.07 87 1018.4
20260905203950 75 324 2.0 3.0 0.00 0.07 0.07 87 1018.4
20260905203446 75 329 3.0 3.0 0.00 0.07 0.07 87 1018.3
20260905202941 75 316 1.0 1.0 0.00 0.07 0.07 88 1018.5
20260905202436 74 316 2.0 3.0 0.00 0.07 0.07 89 1018.4
20260905201932 74 314 2.0 2.0 0.00 0.07 0.07 89 1018.5
20260905201421 73 262 2.0 2.0 0.00 0.07 0.07 91 1018.4
20260905200921 73 162 3.0 5.0 0.00 0.07 0.07 91 1018.4
20260905200417 73 305 1.0 1.0 0.00 0.07 0.07 92 1018.5
20260905195915 73 233 0.0 0.0 0.00 0.07 0.07 93 1018.6
20260905195410 72 302 0.0 0.0 0.00 0.07 0.07 93 1018.6
20260905194906 72 319 1.0 3.0 0.00 0.07 0.07 93 1018.7
20260905194406 72 286 0.0 1.0 0.00 0.07 0.07 94 1018.7
20260905193906 72 345 3.0 3.0 0.00 0.07 0.07 95 1018.6
20260905193401 72 302 1.0 1.0 0.00 0.07 0.07 96 1018.8
20260905192856 72 3 3.0 5.0 0.00 0.07 0.07 97 1018.9
20260905192351 71 336 1.0 2.0 0.00 0.07 0.07 98 1018.6
20260905191851 71 289 0.0 0.0 0.00 0.07 0.07 98 1018.7
20260905191350 71 38 0.0 1.0 0.00 0.07 0.07 98 1018.7
20260905190849 71 288 0.0 0.0 0.00 0.07 0.07 99 1018.7
20260905190343 70 297 1.0 1.0 0.00 0.07 0.07 99 1018.9
20260905185841 70 295 2.0 3.0 0.00 0.07 0.07 99 1019.0
20260905185337 70 320 2.0 3.0 0.00 0.07 0.07 99 1018.8
20260905184836 70 297 1.0 1.0 0.07 0.07 0.07 99 1018.8
20260905184335 69 307 0.0 0.0 0.07 0.07 0.07 99 1019.1
20260905183833 69 300 0.0 0.0 0.00 0.06 0.06 99 1019.1
20260905183329 69 319 2.0 2.0 0.00 0.06 0.06 99 1019.2
20260905182824 69 283 0.0 1.0 0.05 0.06 0.06 99 1019.1
20260905182323 68 55 3.0 3.0 0.12 0.06 0.06 99 1019.1
20260905181819 68 323 2.0 2.0 0.12 0.05 0.05 99 1019.2
20260905181312 68 313 0.0 1.0 0.12 0.04 0.04 99 1019.4
20260905180812 68 315 1.0 2.0 0.14 0.03 0.03 98 1019.2
20260905180307 68 311 0.0 0.0 0.07 0.02 0.02 98 1019.0
20260905175802 68 322 1.0 1.0 0.07 0.02 0.02 98 1019.1
20260905175256 68 322 1.0 1.0 0.00 0.01 0.01 98 1019.2
20260905174752 68 314 0.0 1.0 0.00 0.01 0.01 97 1019.3
20260905174248 68 337 1.0 1.0 0.00 0.01 0.01 97 1019.0
20260905173743 68 292 0.0 0.0 0.00 0.01 0.01 97 1018.9
20260905173239 69 299 0.0 0.0 0.00 0.01 0.01 96 1019.0
20260905172738 69 67 4.0 7.0 0.00 0.01 0.01 95 1019.2
20260905172238 69 339 2.0 3.0 0.00 0.01 0.01 95 1019.0
20260905171734 69 253 0.0 1.0 0.00 0.01 0.01 96 1018.7
20260905171230 69 351 3.0 3.0 0.00 0.01 0.01 95 1019.0
20260905170726 69 303 0.0 1.0 0.00 0.01 0.01 96 1018.9
20260905170222 69 4 0.0 1.0 0.00 0.01 0.01 96 1019.2
20260905165721 69 284 0.0 0.0 0.00 0.01 0.01 96 1019.0
20260905165217 69 332 2.0 3.0 0.00 0.01 0.01 96 1018.9
20260905164716 69 318 1.0 2.0 0.00 0.01 0.01 96 1019.1
20260905164217 69 201 1.0 2.0 0.00 0.01 0.01 96 1019.0
20260905163712 69 106 1.0 3.0 0.00 0.01 0.01 96 1019.1
20260905163209 68 54 3.0 5.0 0.00 0.01 0.01 96 1018.9
20260905162705 68 287 0.0 0.0 0.00 0.01 0.01 96 1018.9
20260905162204 68 41 4.0 6.0 0.00 0.01 0.01 96 1018.8
20260905161659 68 263 2.0 3.0 0.00 0.01 0.01 96 1019.0
20260905161156 68 26 4.0 5.0 0.00 0.01 0.01 95 1018.9
20260905160650 69 304 1.0 1.0 0.00 0.01 0.01 96 1019.0
20260905160149 68 19 3.0 5.0 0.00 0.01 0.01 95 1018.8
20260905155644 69 72 3.0 5.0 0.00 0.01 0.01 95 1018.8
20260905155143 68 291 1.0 3.0 0.00 0.01 0.01 95 1018.7
20260905154638 69 266 0.0 1.0 0.00 0.01 0.01 95 1018.8
20260905154133 69 8 2.0 3.0 0.00 0.01 0.01 95 1018.5
20260905153629 69 279 0.0 0.0 0.00 0.01 0.01 95 1018.2
20260905153124 68 267 0.0 0.0 0.00 0.01 0.01 96 1018.5
20260905152619 69 31 0.0 2.0 0.00 0.01 0.01 95 1018.6
20260905152114 69 12 5.0 6.0 0.00 0.01 0.01 95 1018.3
20260905151609 69 334 2.0 3.0 0.05 0.01 0.01 94 1018.4
20260905151104 69 341 1.0 2.0 0.05 0.01 0.01 93 1018.4
20260905150559 69 282 1.0 2.0 0.00 0.00 0.00 92 1018.6
20260905150057 70 304 0.0 0.0 0.00 0.00 0.00 91 1018.5
20260905145550 70 144 2.0 2.0 0.00 0.00 0.00 91 1018.2
20260905145050 70 293 0.0 1.0 0.00 0.00 0.00 91 1018.5
20260905144545 70 286 1.0 1.0 0.00 0.00 0.00 90 1018.5
20260905144044 70 309 0.0 1.0 0.00 0.00 0.00 90 1018.5
20260905143543 70 289 0.0 0.0 0.00 0.00 0.00 90 1018.6
20260905143039 70 227 1.0 1.0 0.00 0.00 0.00 90 1018.4
20260905142537 70 7 2.0 2.0 0.00 0.00 0.00 90 1018.4
20260905142033 70 315 0.0 0.0 0.00 0.00 0.00 91 1018.2
20260905141527 70 324 2.0 3.0 0.00 0.00 0.00 91 1018.3
20260905141023 70 339 3.0 3.0 0.00 0.00 0.00 91 1018.3
20260905140518 70 125 5.0 6.0 0.00 0.00 0.00 91 1018.6
20260905140017 70 35 2.0 2.0 0.00 0.00 0.00 91 1018.4
20260905135513 71 339 4.0 5.0 0.00 0.00 0.00 91 1018.1
20260905135008 71 318 2.0 2.0 0.00 0.00 0.00 91 1018.1
20260905134507 71 309 0.0 0.0 0.00 0.00 0.00 91 1018.0
20260905134001 70 298 3.0 5.0 0.00 0.00 0.00 91 1018.0
20260905133456 70 309 2.0 2.0 0.00 0.00 0.00 93 1018.2
20260905132955 70 342 2.0 3.0 0.00 0.00 0.00 93 1018.0
20260905132451 70 349 2.0 2.0 0.00 0.00 0.00 94 1018.0
20260905131945 70 179 2.0 3.0 0.00 0.00 0.00 94 1018.1
20260905131441 70 43 0.0 2.0 0.00 0.00 0.00 94 1018.0
20260905130936 70 303 0.0 0.0 0.00 0.00 0.00 95 1017.8
20260905130435 69 328 0.0 0.0 0.00 0.00 0.00 96 1017.8
20260905125935 70 296 0.0 0.0 0.00 0.00 0.00 97 1017.6
20260905125430 69 320 1.0 2.0 0.00 0.00 0.00 97 1017.7
20260905124926 69 284 0.0 0.0 0.00 0.00 0.00 98 1017.8
20260905124422 69 330 1.0 1.0 0.00 0.00 0.00 98 1017.8
20260905123922 69 316 0.0 0.0 0.00 0.00 0.00 99 1017.5
20260905123419 69 306 1.0 2.0 0.00 0.00 0.00 99 1017.5
20260905122914 69 335 0.0 1.0 0.00 0.00 0.00 99 1017.3
20260905122413 69 288 0.0 0.0 0.00 0.00 0.00 99 1017.3